DW3884 Weather Reports


time (UTC)temp
C
wind
direction
speed
KPH
gust
KPH
rain 1hr
cm
rain 24hr
cm
rain mn
cm
humidity
%
barometer
mb
20260505140214 12 58 0.0 0.0 0.00 0.00 0.00 91 1014.1
20260505124813 12 248 0.0 0.0 0.00 0.00 0.00 91 1013.5
20260505124039 12 248 0.0 0.0 0.00 0.00 0.00 91 1013.5
20260505123533 12 248 0.0 0.0 0.00 0.00 0.00 91 1013.5
20260505123027 12 248 0.0 0.0 0.00 0.00 0.00 91 1013.5
20260505122737 12 248 0.0 0.0 0.00 0.00 0.00 91 1013.4
20260505122015 12 248 0.0 0.0 0.00 0.00 0.00 91 1013.4
20260505121735 12 248 0.0 0.0 0.00 0.00 0.00 91 1013.3
20260505121002 12 248 0.0 0.0 0.00 0.00 0.00 91 1013.3
20260505120456 12 248 0.0 0.0 0.00 0.00 0.00 91 1013.3
20260505115951 12 248 0.0 0.0 0.00 0.00 0.00 91 1013.2
20260505115451 12 248 0.0 0.0 0.00 0.00 0.00 91 1013.2
20260505114949 12 248 0.0 0.0 0.00 0.00 0.00 91 1013.3
20260505114450 12 248 0.0 0.0 0.00 0.00 0.00 91 1013.2
20260505113953 12 248 0.0 0.0 0.00 0.00 0.00 91 1013.2
20260505113447 12 248 0.0 0.0 0.00 0.00 0.00 91 1013.2
20260505112946 12 248 0.0 0.0 0.00 0.00 0.00 91 1013.2
20260505112445 12 248 0.0 0.0 0.00 0.00 0.00 91 1013.2
20260505112208 12 248 0.0 0.0 0.00 0.00 0.00 91 1013.2
20260505111443 12 248 0.0 0.0 0.00 0.00 0.00 91 1013.1
20260505110941 12 248 0.0 0.0 0.00 0.00 0.00 91 1013.1
20260505110441 12 0 0.0 0.0 0.00 0.00 0.00 91 1013.1
20260505101925 11 45 0.0 0.0 0.00 0.00 0.00 92 1012.8
20260505101418 11 45 0.0 0.0 0.00 0.00 0.00 92 1012.8
20260505100914 11 45 0.0 0.0 0.00 0.00 0.00 92 1012.7
20260505100406 11 45 0.0 0.0 0.00 0.00 0.00 92 1012.7
20260505095901 11 45 0.0 0.0 0.00 0.00 0.00 92 1012.7
20260505095354 11 45 0.0 0.0 0.00 0.00 0.00 92 1012.7
20260505094849 11 45 0.0 0.0 0.00 0.00 0.00 92 1012.6
20260505094343 11 45 0.0 0.0 0.00 0.00 0.00 92 1012.6
20260505093841 11 45 0.0 0.0 0.00 0.00 0.00 91 1012.5
20260505093327 11 45 0.0 0.0 0.00 0.00 0.00 91 1012.5
20260505092821 11 45 0.0 0.0 0.00 0.00 0.00 91 1012.5
20260505092315 11 45 0.0 0.0 0.00 0.00 0.00 91 1012.4
20260505091810 11 45 0.0 0.0 0.00 0.00 0.00 91 1012.4
20260505091303 11 45 0.0 0.0 0.00 0.00 0.00 91 1012.4
20260505090757 11 45 0.0 0.0 0.00 0.00 0.00 91 1012.3
20260505090251 11 45 0.0 0.0 0.00 0.00 0.00 91 1012.3
20260505085745 11 45 0.0 0.0 0.00 0.00 0.00 91 1012.2
20260505085239 12 45 0.0 0.0 0.00 0.00 0.00 91 1012.3
20260505084733 12 45 0.0 0.0 0.00 0.00 0.00 91 1012.2
20260505084227 12 45 0.0 0.0 0.00 0.00 0.00 90 1012.2
20260505084201 12 45 0.0 0.0 0.00 0.00 0.00 90 1012.2
20260505083215 12 45 0.0 0.0 0.00 0.00 0.00 90 1012.2
20260505082715 12 45 0.0 0.0 0.00 0.00 0.00 90 1012.2
20260505082213 12 45 0.0 0.0 0.00 0.00 0.00 90 1012.2
20260505081712 12 45 0.0 0.0 0.00 0.00 0.00 90 1012.2
20260505081209 12 45 0.0 0.0 0.00 0.00 0.00 90 1012.2
20260505080707 12 45 0.0 0.0 0.00 0.00 0.00 89 1012.1
20260505080207 12 45 0.0 0.0 0.00 0.00 0.00 89 1012.1
20260505075708 12 45 0.0 0.0 0.00 0.00 0.00 89 1012.1
20260505075205 12 45 0.0 0.0 0.00 0.00 0.00 89 1012.0
20260505074703 12 45 0.0 0.0 0.00 0.00 0.00 89 1012.0
20260505074204 13 45 0.0 0.0 0.00 0.00 0.00 88 1011.9
20260505073703 13 45 0.0 0.0 0.00 0.00 0.00 88 1011.9
20260505073201 13 45 0.0 0.0 0.00 0.00 0.00 87 1011.8
20260505072659 13 45 0.0 0.0 0.00 0.00 0.00 87 1011.8
20260505072158 13 45 0.0 0.0 0.00 0.00 0.00 87 1011.8
20260505071655 13 45 0.0 0.0 0.00 0.00 0.00 87 1011.7
20260505071154 13 45 0.0 0.0 0.00 0.00 0.00 87 1011.6
20260505070651 13 45 0.0 0.0 0.00 0.00 0.00 87 1011.6
20260505070149 13 45 0.0 0.0 0.00 0.00 0.00 86 1011.5
20260505065646 13 45 0.0 0.0 0.00 0.00 0.00 86 1011.5
20260505065408 13 45 0.0 0.0 0.00 0.00 0.00 86 1011.5
20260505064907 14 45 0.0 0.0 0.00 0.00 0.00 86 1011.4
20260505064142 14 45 0.0 0.0 0.00 0.00 0.00 85 1011.3
20260505063642 14 45 0.0 0.0 0.00 0.00 0.00 85 1011.2
20260505063141 14 45 0.0 0.0 0.00 0.00 0.00 86 1011.2
20260505062642 14 51 0.0 0.0 0.00 0.00 0.00 86 1011.1
20260505062404 14 51 0.0 1.6 0.00 0.00 0.00 85 1011.1
20260505061642 15 51 0.0 1.6 0.00 0.00 0.00 86 1011.1
20260505061405 15 51 0.0 1.6 0.00 0.00 0.00 85 1011.0
20260505060908 15 51 0.0 0.0 0.00 0.00 0.00 85 1011.0
20260505060138 15 104 0.0 0.0 0.00 0.00 0.00 84 1010.9
20260505055638 15 104 0.0 0.0 0.00 0.00 0.00 83 1010.9
20260505055138 15 104 0.0 0.0 0.00 0.00 0.00 83 1010.8
20260505054638 15 104 0.0 0.0 0.00 0.00 0.00 82 1010.8
20260505054358 15 104 0.0 0.0 0.00 0.00 0.00 83 1010.8
20260505053638 15 104 0.0 0.0 0.00 0.00 0.00 82 1010.8
20260505053401 16 104 0.0 0.0 0.00 0.00 0.00 81 1010.8
20260505052638 16 104 0.0 0.0 0.00 0.00 0.00 82 1010.8
20260505052138 16 104 0.0 0.0 0.00 0.00 0.00 81 1010.6
20260505051638 16 104 0.0 0.0 0.00 0.00 0.00 80 1010.6
20260505051141 16 104 0.0 0.0 0.00 0.00 0.00 79 1010.5
20260505050905 16 104 0.0 0.0 0.00 0.00 0.00 79 1010.5
20260505050136 16 104 0.0 0.0 0.00 0.00 0.00 78 1010.4
20260505041629 18 52 0.0 1.6 0.00 0.00 0.00 76 1009.8
20260505041130 18 52 0.0 1.6 0.00 0.00 0.00 75 1009.8
20260505040630 18 52 0.0 1.6 0.00 0.00 0.00 75 1009.7
20260505040127 18 52 0.0 1.6 0.00 0.00 0.00 75 1009.6
20260505035627 19 52 0.0 0.0 0.00 0.00 0.00 74 1009.6
20260505035128 19 52 0.0 0.0 0.00 0.00 0.00 73 1009.5
20260505034628 19 52 0.0 1.6 0.00 0.00 0.00 72 1009.4
20260505034128 20 52 0.0 3.2 0.00 0.00 0.00 71 1009.4
20260505033628 20 52 0.0 3.2 0.00 0.00 0.00 72 1009.3
20260505033127 20 72 0.0 0.0 0.00 0.00 0.00 70 1009.1
20260505032627 20 72 0.0 0.0 0.00 0.00 0.00 71 1009.1
20260505032128 20 72 0.0 1.6 0.00 0.00 0.00 70 1009.0
20260505032114 21 72 0.0 1.6 0.00 0.00 0.00 68 1008.9
20260505031125 21 72 0.0 1.6 0.00 0.00 0.00 67 1008.9
20260505030627 21 72 0.0 3.2 0.00 0.00 0.00 67 1008.8
20260505030128 21 72 0.0 3.2 0.00 0.00 0.00 68 1008.6
20260505025626 21 153 0.0 1.6 0.00 0.00 0.00 70 1008.6
20260505025126 21 165 0.0 1.6 0.00 0.00 0.00 67 1008.5
20260505024626 22 165 0.0 3.2 0.00 0.00 0.00 67 1008.5
20260505024126 22 83 1.6 3.2 0.00 0.00 0.00 66 1008.4
20260505023624 22 83 1.6 3.2 0.00 0.00 0.00 66 1008.4
20260505023124 22 83 1.6 3.2 0.00 0.00 0.00 67 1008.4
20260505022617 22 40 0.0 3.2 0.00 0.00 0.00 66 1008.4
20260505022112 22 87 0.0 3.2 0.00 0.00 0.00 68 1008.3
20260505021606 22 87 0.0 3.2 0.00 0.00 0.00 65 1008.3
20260505021324 22 125 0.0 3.2 0.00 0.00 0.00 65 1008.3
20260505020553 23 54 0.0 1.6 0.00 0.00 0.00 64 1008.3
20260505020047 23 67 0.0 1.6 0.00 0.00 0.00 64 1008.3
20260505015542 23 17 0.0 1.6 0.00 0.00 0.00 63 1008.3
20260505015035 23 77 0.0 3.2 0.00 0.00 0.00 61 1008.3
20260505014529 23 129 1.6 3.2 0.00 0.00 0.00 61 1008.2
20260505014023 23 60 1.6 3.2 0.00 0.00 0.00 60 1008.2
20260505013517 23 71 0.0 3.2 0.00 0.00 0.00 60 1008.3
20260505013013 23 71 1.6 3.2 0.00 0.00 0.00 60 1008.3
20260505012506 23 27 1.6 4.8 0.00 0.00 0.00 61 1008.2
20260505011959 23 87 1.6 4.8 0.00 0.00 0.00 58 1008.3
20260505011717 23 267 0.0 3.2 0.00 0.00 0.00 58 1008.3
20260505010947 23 82 1.6 6.4 0.00 0.00 0.00 58 1008.4
20260505010442 23 7 1.6 6.4 0.00 0.00 0.00 56 1008.3
20260505005936 24 26 1.6 6.4 0.00 0.00 0.00 58 1008.4
20260505005648 24 79 1.6 6.4 0.00 0.00 0.00 56 1008.4
20260505004925 24 135 1.6 4.8 0.00 0.00 0.00 54 1008.4
20260505004418 24 13 1.6 4.8 0.00 0.00 0.00 53 1008.4
20260505003912 24 142 1.6 4.8 0.00 0.00 0.00 54 1008.4
20260505003405 24 125 1.6 4.8 0.00 0.00 0.00 56 1008.4
20260505002859 24 60 1.6 3.2 0.00 0.00 0.00 53 1008.3
20260505002615 24 36 0.0 3.2 0.00 0.00 0.00 53 1008.3
20260505001848 25 64 1.6 6.4 0.00 0.00 0.00 53 1008.3
20260505001342 25 66 1.6 6.4 0.00 0.00 0.00 52 1008.3
20260505000836 25 100 1.6 4.8 0.00 0.00 0.00 53 1008.3
20260505000329 25 116 1.6 3.2 0.00 0.00 0.00 52 1008.4
20260504235824 25 80 1.6 3.2 0.00 0.00 0.00 51 1008.3
20260504235540 25 62 1.6 6.4 0.00 0.00 0.00 49 1008.3
20260504235040 25 138 1.6 6.4 0.00 0.00 0.00 46 1008.4
20260504234305 25 187 1.6 6.4 0.00 0.00 0.00 47 1008.4
20260504233800 25 30 1.6 4.8 0.00 0.00 0.00 47 1008.4
20260504233515 25 61 1.6 4.8 0.00 0.00 0.00 48 1008.4
20260504232748 25 79 3.2 8.0 0.00 0.00 0.00 50 1008.4
20260504232241 25 273 3.2 9.7 0.00 0.00 0.00 49 1008.3
20260504231735 25 167 3.2 9.7 0.00 0.00 0.00 48 1008.4
20260504231229 25 227 3.2 8.0 0.00 0.00 0.00 47 1008.5
20260504230723 25 121 3.2 8.0 0.00 0.00 0.00 47 1008.5
20260504230218 25 68 1.6 6.4 0.00 0.00 0.00 47 1008.6
20260504225712 25 292 1.6 8.0 0.00 0.00 0.00 48 1008.8
20260504225206 25 81 1.6 8.0 0.00 0.00 0.00 48 1008.9
20260504224700 25 40 1.6 4.8 0.00 0.00 0.00 49 1008.9
20260504224153 25 19 0.0 6.4 0.00 0.00 0.00 48 1008.9
20260504223647 25 91 1.6 6.4 0.00 0.00 0.00 48 1008.9
20260504223142 25 116 3.2 6.4 0.00 0.00 0.00 49 1009.0
20260504222636 25 250 1.6 6.4 0.00 0.00 0.00 46 1009.1
20260504222130 25 48 1.6 4.8 0.00 0.00 0.00 49 1009.1
20260504221624 25 88 3.2 6.4 0.00 0.00 0.00 49 1009.2
20260504221118 25 55 1.6 6.4 0.00 0.00 0.00 48 1009.2
20260504220834 26 44 1.6 6.4 0.00 0.00 0.00 50 1009.2
20260504220105 26 111 1.6 4.8 0.00 0.00 0.00 48 1009.2
20260504215601 26 71 1.6 4.8 0.00 0.00 0.00 49 1009.2
20260504215102 26 73 3.2 6.4 0.00 0.00 0.00 49 1009.2
20260504214821 26 100 3.2 6.4 0.00 0.00 0.00 48 1009.3
20260504214106 26 69 1.6 6.4 0.00 0.00 0.00 46 1009.3
20260504213602 26 92 1.6 6.4 0.00 0.00 0.00 50 1009.3
20260504213100 26 56 3.2 8.0 0.00 0.00 0.00 48 1009.4
20260504212601 26 4 3.2 8.0 0.00 0.00 0.00 49 1009.3
20260504212100 26 79 1.6 8.0 0.00 0.00 0.00 47 1009.3
20260504211558 26 60 1.6 8.0 0.00 0.00 0.00 48 1009.4
20260504211056 26 225 1.6 4.8 0.00 0.00 0.00 52 1009.4
20260504210556 25 6 3.2 4.8 0.00 0.00 0.00 52 1009.3
20260504210056 25 38 3.2 6.4 0.00 0.00 0.00 52 1009.4
20260504205553 25 136 1.6 6.4 0.00 0.00 0.00 50 1009.5
20260504205053 25 53 1.6 4.8 0.00 0.00 0.00 52 1009.5
20260504204554 25 34 3.2 4.8 0.00 0.00 0.00 52 1009.5
20260504204053 25 50 3.2 6.4 0.00 0.00 0.00 51 1009.5
20260504203552 25 88 1.6 6.4 0.00 0.00 0.00 51 1009.4
20260504203057 25 87 1.6 4.8 0.00 0.00 0.00 55 1009.4
20260504202556 25 36 3.2 6.4 0.00 0.00 0.00 55 1009.5
20260504202050 25 17 3.2 6.4 0.00 0.00 0.00 53 1009.5
20260504201811 25 19 1.6 6.4 0.00 0.00 0.00 54 1009.5
20260504201038 25 12 1.6 6.4 0.00 0.00 0.00 55 1009.5
20260504200532 25 2 1.6 4.8 0.00 0.00 0.00 54 1009.6
20260504200026 25 91 3.2 6.4 0.00 0.00 0.00 54 1009.7
20260504195520 25 210 3.2 6.4 0.00 0.00 0.00 53 1009.7
20260504195010 25 71 1.6 6.4 0.00 0.00 0.00 51 1009.7
20260504194725 25 14 3.2 6.4 0.00 0.00 0.00 52 1009.7
20260504193958 25 343 1.6 6.4 0.00 0.00 0.00 50 1009.8
20260504193456 25 327 1.6 6.4 0.00 0.00 0.00 52 1009.8
20260504192943 25 304 1.6 3.2 0.00 0.00 0.00 51 1009.8
20260504192436 25 58 1.6 6.4 0.00 0.00 0.00 50 1009.8
20260504191930 25 147 1.6 6.4 0.00 0.00 0.00 50 1009.8
20260504191424 25 44 1.6 4.8 0.00 0.00 0.00 50 1009.9
20260504190917 25 12 1.6 8.0 0.00 0.00 0.00 59 1009.9
20260504190412 25 52 3.2 6.4 0.00 0.00 0.00 52 1009.9
20260504185906 25 42 3.2 4.8 0.00 0.00 0.00 52 1010.0
20260504185400 25 23 1.6 4.8 0.00 0.00 0.00 51 1010.0
20260504184855 25 62 1.6 4.8 0.00 0.00 0.00 53 1010.0
20260504184348 25 326 1.6 6.4 0.00 0.00 0.00 55 1010.0
20260504183843 25 330 3.2 6.4 0.00 0.00 0.00 52 1010.0
20260504183336 24 239 1.6 4.8 0.00 0.00 0.00 52 1010.1
20260504182831 24 190 1.6 4.8 0.00 0.00 0.00 52 1010.3
20260504182324 24 75 0.0 3.2 0.00 0.00 0.00 57 1010.3
20260504181818 23 74 1.6 6.4 0.00 0.00 0.00 56 1010.3
20260504181312 23 57 1.6 6.4 0.00 0.00 0.00 61 1010.3
20260504180806 23 69 1.6 6.4 0.00 0.00 0.00 58 1010.3
20260504180522 23 121 1.6 6.4 0.00 0.00 0.00 59 1010.2
20260504175754 22 233 1.6 4.8 0.00 0.00 0.00 62 1010.3
20260504175248 22 14 1.6 4.8 0.00 0.00 0.00 60 1010.3
20260504174743 22 321 1.6 4.8 0.00 0.00 0.00 63 1010.2
20260504174236 21 326 1.6 4.8 0.00 0.00 0.00 65 1010.3
20260504173731 21 327 1.6 4.8 0.00 0.00 0.00 66 1010.2
20260504173224 21 60 0.0 3.2 0.00 0.00 0.00 64 1010.3
20260504172718 21 50 1.6 3.2 0.00 0.00 0.00 62 1010.2
20260504172212 21 98 1.6 4.8 0.00 0.00 0.00 63 1010.3
20260504171705 21 327 0.0 4.8 0.00 0.00 0.00 63 1010.2
20260504171200 21 5 0.0 3.2 0.00 0.00 0.00 63 1010.2
20260504170918 21 4 1.6 4.8 0.00 0.00 0.00 63 1010.2
20260504170148 21 106 1.6 4.8 0.00 0.00 0.00 61 1010.2
20260504150935 12 60 0.0 0.0 0.00 0.00 0.00 93 1009.7
20260504150429 12 60 0.0 0.0 0.00 0.00 0.00 94 1009.7